NOAA 16 DEB, 41264

Orbit data source: Space-Track

NOAA 16 DEB, 41264 is space debris in SSO originally from a launch on Thu, 21 Sep 2000 UTC launched from the Air Force Western Test Range (AFWTR). Debris objects in space refer to the collection of defunct objects orbiting the Earth. Examples of debris include non-operational satellites, rocket bodies, and fragments generated from explosions, collisions, or faulty payload assembly.

Loading next visibility...
Identifier
41264, 2000-055FQ
Orbit
SSO
Country
Flag of USUS
Related business
Manufacturer
Unknown
Mission
Spacecraft
Bus & Motor
Unknown
Mass
Unknown
Launch date (UTC)
2000-09-21 (25 years ago)
Launch vehicle
Unknown
Launch site
Air Force Western Test Range (AFWTR)
Object type
Payload
Rocket body
Debris
Shape & HBR
Unknown shape, 0.1 m
Radar Cross Section
Small (<0.1 m²)

Expand to show TLE details & history
Last TLE update: 16 hours ago

TLE from 16 hours ago
0 NOAA 16 DEB
1 41264U 00055FQ  25352.10250358  .00002955  00000-0  12497-2 0  9994
2 41264  98.6377  44.8371 0002594 236.1856 123.9078 14.26265714516007
Epoch: 2025-12-18T02:27Z
TLE epoch observation values (Epoch: 2025-12-18T02:27:36.309Z)
Latitude
0.00005°
Longitude
-79.02702°
Altitude
808.205 km
Speed
7.449 km/s
True Right ascension
02h 59m 20s
True Declination
0° 00' 00"
Sunlit
Object was in full shadow at epoch
Visualization orbit readout
Latitude
Unknown
Longitude
Unknown
Altitude
Unknown
Speed
Unknown
Apparent Right ascension
Unknown
Apparent Declination
Unknown
Sunlit
N/A
Visualization observer readout
Local Sidereal Time
17:17:17
Azimuth
Unknown
Elevation
Unknown
Doppler factor
Unknown
Orbital elements
Apogee altitude
803.249 km
Perigee altitude
799.525 km
Semi-major axis
7,179.524 km
Eccentricity
0.00026
Inclination
98.6377°
RAAN
44.8371°
Arg. of periapsis
236.1856°
True anomaly
123.93247°
Mean anomaly
123.9078°
Eccentric anomaly
123.92013°
Mean motion
3.56779 °/min
Orbital period
100.9 mins
BSTAR
0.0012497
Loading maneuver chart data...
Computing Atmospheric mass density...
Loading historical data...
Loading historical data...
Loading historical data...
Loading historical data...
Loading historical data...
Loading historical data...
Loading historical data...

Documentation

Showing up to 5 results
|